1486242000.3,11812,10.5,72382.8,-8.61,-36.67,-36.79,0,*5B
1486242001.56,11813,10.5,72386.8,-8.61,-36.49,-36.73,0,*5C
1486242002.79,11814,10.5,72382.8,-8.59,-36.31,-36.49,0,*56
1486242004.06,11815,10.44,72380.8,-8.61,-36.49,-36.73,0,*5A
1486242005.31,11816,10.5,72384.8,-8.59,-36.61,-36.79,0,*52
1486242006.55,11817,10.44,72380.8,-8.61,-36.55,-36.73,0,*55
1486242007.81,11818,10.44,72382.0,-8.61,-36.37,-36.73,0,*5E
1486242009.05,11819,10.44,72382.0,-8.61,-36.67,-36.85,0,*53
1486242010.28,11820,10.44,72380.5,-8.61,-36.55,-36.85,0,*58
1486242011.55,11821,10.44,72382.5,-8.61,-36.37,-36.55,0,*50
1486242012.82,11822,10.44,72382.8,-8.61,-36.37,-36.55,0,*53
1486242014.04,11823,10.44,72382.5,-8.63,-36.31,-36.55,0,*56
1486242015.27,11824,10.5,72386.0,-8.63,-36.37,-36.73,0,*53
1486242016.49,11825,10.44,72382.5,-8.63,-36.31,-36.55,0,*50
1486242017.73,11826,10.5,72384.0,-8.61,-36.31,-36.55,0,*51
1486242019.01,11827,10.44,72380.5,-8.61,-36.13,-36.37,0,*54
1486242020.28,11828,10.5,72386.8,-8.61,-36.37,-36.67,0,*58
1486242021.52,11829,10.44,72382.0,-8.61,-36.31,-36.55,0,*5E
1486242022.78,11830,10.44,72382.5,-8.61,-36.19,-36.49,0,*51
1486242024.03,11831,10.44,72382.3,-8.61,-36.31,-36.55,0,*57
1486242025.29,11832,10.44,72380.3,-8.61,-36.49,-36.73,0,*5F
1486242026.56,11833,10.44,72380.5,-8.61,-36.49,-36.73,0,*5E
1486242027.8,11834,10.44,72384.0,-8.61,-36.31,-36.55,0,*52
1486242029.01,11835,10.44,72380.3,-8.63,-36.31,-36.67,0,*50
1486242030.25,11836,10.44,72382.5,-8.63,-36.37,-36.67,0,*55
1486242031.49,11837,10.44,72380.5,-8.63,-36.37,-36.67,0,*54
1486242032.72,11838,10.5,72386.8,-8.63,-36.37,-36.67,0,*5B
1486242033.96,11839,10.44,72382.0,-8.65,-36.55,-36.73,0,*5D
1486242035.22,11840,10.44,72380.5,-8.65,-36.55,-36.79,0,*59
1486242036.45,11841,10.44,72380.3,-8.63,-36.49,-36.73,0,*59
1486242037.68,11842,10.5,72384.0,-8.63,-36.49,-36.85,0,*53
1486242038.92,11843,10.44,72380.3,-8.63,-36.49,-36.67,0,*5E
1486242040.16,11844,10.44,72382.5,-8.65,-36.43,-36.73,0,*50
1486242041.44,11845,10.5,72384.3,-8.65,-36.37,-36.61,0,*51
1486242042.65,11846,10.44,72380.5,-8.63,-36.19,-36.55,0,*5F
1486242043.92,11847,10.5,72382.8,-8.65,-36.25,-36.55,0,*57
1486242045.14,11848,10.44,72382.5,-8.63,-36.31,-36.55,0,*5B
1486242046.41,11849,10.44,72380.5,-8.65,-36.25,-36.55,0,*59
1486242047.65,11850,10.44,72380.3,-8.65,-36.19,-36.55,0,*5E
1486242048.88,11851,10.44,72380.3,-8.63,-36.49,-36.67,0,*5D
1486242050.14,11852,10.5,72384.0,-8.65,-36.55,-36.79,0,*5A
1486242051.38,11853,10.44,72380.0,-8.63,-36.37,-36.67,0,*56
1486242052.59,11854,10.5,72382.8,-8.63,-36.31,-36.55,0,*56
1486242053.85,11855,10.44,72384.3,-8.65,-36.61,-36.73,0,*50
1486242055.06,11856,10.5,72386.0,-8.63,-36.67,-36.85,0,*5A
1486242056.32,11857,10.44,72382.0,-8.65,-36.43,-36.79,0,*58
1486242057.58,11858,10.5,72386.8,-8.65,-36.55,-36.79,0,*50
1486242058.84,11859,10.44,72380.5,-8.65,-36.55,-36.91,0,*57
1486242060.09,11860,10.5,72384.3,-8.65,-36.43,-36.79,0,*5C
1486242061.37,11861,10.5,72382.8,-8.65,-36.37,-36.61,0,*57
1486242062.63,11862,10.44,72384.5,-8.65,-36.43,-36.61,0,*57
1486242063.87,11863,10.44,72382.0,-8.65,-36.43,-36.73,0,*55
1486242065.11,11864,10.44,72380.3,-8.65,-36.55,-36.73,0,*55
1486242066.37,11865,10.44,72382.8,-8.65,-36.55,-36.79,0,*5E
1486242067.6,11866,10.44,72382.3,-8.67,-36.55,-36.79,0,*5F
1486242068.83,11867,10.44,72380.3,-8.67,-36.55,-36.79,0,*5E
1486242070.07,11868,10.44,72380.3,-8.67,-36.55,-36.79,0,*51
1486242071.35,11869,10.44,72382.0,-8.69,-36.61,-36.79,0,*59
1486242072.56,11870,10.44,72380.5,-8.67,-36.55,-36.73,0,*52
1486242073.83,11871,10.44,72382.8,-8.67,-36.25,-36.61,0,*57
1486242075.09,11872,10.44,72382.8,-8.67,-36.25,-36.61,0,*54
1486242076.3,11873,10.44,72380.8,-8.67,-36.55,-36.73,0,*51
1486242077.54,11874,10.44,72380.0,-8.67,-36.43,-36.61,0,*52
1486242078.8,11875,10.44,72382.0,-8.67,-36.37,-36.61,0,*50
1486242080.01,11876,10.44,72380.3,-8.67,-36.43,-36.73,0,*53
1486242081.24,11877,10.44,72382.8,-8.67,-36.55,-36.79,0,*5F
1486242082.46,11878,10.44,72380.8,-8.67,-36.43,-36.73,0,*5D
1486242083.74,11879,10.5,72382.8,-8.69,-36.49,-36.79,0,*52
1486242085.0,11880,10.44,72382.8,-8.69,-36.67,-36.79,0,*58
1486242086.24,11881,10.44,72380.3,-8.67,-36.55,-36.91,0,*50
1486242087.52,11882,10.44,72380.5,-8.69,-36.49,-36.79,0,*56
1486242088.78,11883,10.44,72380.0,-8.69,-36.49,-36.97,0,*57
1486242090.04,11884,10.44,72382.5,-8.69,-36.61,-36.85,0,*59
1486242091.25,11885,10.44,72380.5,-8.67,-36.43,-36.73,0,*5F
1486242092.47,11886,10.44,72380.0,-8.67,-36.55,-36.73,0,*5B
1486242093.73,11887,10.5,72382.3,-8.69,-36.61,-36.97,0,*59
1486242094.96,11888,10.44,72380.0,-8.69,-36.67,-36.85,0,*53
1486242096.23,11889,10.44,72384.5,-8.69,-36.49,-36.67,0,*52
1486242097.48,11890,10.44,72376.3,-8.67,-36.25,-36.55,0,*5F
1486242098.69,11891,10.44,72378.8,-8.67,-36.19,-36.55,0,*51
1486242099.98,11892,10.44,72380.5,-8.69,-36.49,-36.79,0,*57
1486242101.21,11893,10.44,72380.5,-8.69,-36.67,-36.97,0,*5A
1486242102.45,11894,10.44,72376.5,-8.67,-36.73,-36.91,0,*50
1486242103.71,11895,10.44,72378.8,-8.69,-36.79,-37.15,0,*58
1486242104.95,11896,10.44,72382.8,-8.69,-36.85,-37.03,0,*5F
1486242106.21,11897,10.44,72382.3,-8.69,-36.79,-37.03,0,*5D
1486242107.44,11898,10.44,72380.0,-8.71,-36.79,-36.97,0,*57
1486242108.67,11899,10.44,72376.8,-8.71,-36.61,-36.85,0,*5C
1486242109.91,11900,10.44,72380.5,-8.71,-36.49,-36.85,0,*57
1486242111.15,11901,10.44,72382.0,-8.71,-36.49,-36.67,0,*5A
1486242112.36,11902,10.44,72380.8,-8.71,-36.31,-36.67,0,*56
1486242113.58,11903,10.44,72382.0,-8.71,-36.31,-36.67,0,*57
1486242114.84,11904,10.44,72380.3,-8.73,-36.55,-36.91,0,*59
1486242116.08,11905,10.44,72382.5,-8.73,-36.67,-36.85,0,*5C
1486242117.33,11906,10.44,72382.8,-8.71,-36.49,-36.79,0,*52
1486242118.55,11907,10.44,72384.0,-8.71,-36.43,-36.67,0,*56
1486242119.79,11908,10.44,72380.5,-8.73,-36.31,-36.55,0,*5F
1486242121.04,11909,10.44,72382.0,-8.73,-36.31,-36.67,0,*5F
1486242122.29,11910,10.44,72380.5,-8.71,-36.49,-36.79,0,*55
1486242123.54,11911,10.5,72384.3,-8.71,-36.49,-36.67,0,*5B
1486242124.78,11912,10.44,72380.5,-8.71,-36.49,-36.67,0,*58
1486242126.04,11913,10.44,72380.3,-8.71,-36.25,-36.61,0,*55
1486242127.29,11914,10.44,72378.8,-8.71,-36.13,-36.49,0,*5D
1486242128.53,11915,10.44,72380.3,-8.73,-36.19,-36.67,0,*58
1486242129.78,11916,10.44,72382.0,-8.73,-36.31,-36.67,0,*51
1486242131.04,11917,10.44,72382.5,-8.73,-36.37,-36.67,0,*56
1486242132.31,11918,10.44,72382.0,-8.73,-36.37,-36.67,0,*59
1486242133.54,11919,10.44,72380.3,-8.71,-36.31,-36.61,0,*5A
1486242134.78,11920,10.5,72384.3,-8.71,-36.31,-36.61,0,*50
1486242136.01,11921,10.44,72380.3,-8.73,-36.55,-36.85,0,*5B
1486242137.26,11922,10.44,72382.5,-8.73,-36.73,-37.03,0,*53
1486242138.49,11923,10.5,72384.8,-8.73,-36.55,-36.85,0,*59
1486242139.73,11924,10.44,72382.3,-8.75,-36.49,-36.73,0,*5C
1486242140.96,11925,10.44,72380.8,-8.71,-36.43,-36.79,0,*59
1486242142.2,11926,10.44,72382.3,-8.73,-36.67,-36.85,0,*5D
1486242143.46,11927,10.44,72380.0,-8.73,-36.49,-36.73,0,*59
1486242144.7,11928,10.44,72380.0,-8.73,-36.19,-36.55,0,*57
1486242145.93,11929,10.44,72382.5,-8.75,-36.19,-36.49,0,*5D
1486242147.15,11930,10.44,72380.8,-8.75,-36.31,-36.55,0,*52
1486242148.37,11931,10.44,72380.0,-8.75,-36.19,-36.55,0,*59
1486242149.61,11932,10.44,72382.3,-8.73,-36.19,-36.55,0,*5C
1486242150.85,11933,10.44,72380.3,-8.73,-36.31,-36.67,0,*56
1486242152.12,11934,10.5,72386.5,-8.73,-36.49,-36.67,0,*5E
1486242153.36,11935,10.44,72380.5,-8.71,-36.49,-36.67,0,*5D
1486242154.6,11936,10.44,72384.0,-8.73,-36.67,-36.73,0,*55
1486242155.86,11937,10.44,72380.3,-8.73,-36.49,-36.85,0,*51
1486242157.09,11938,10.44,72380.8,-8.75,-36.49,-36.73,0,*51
1486242158.36,11939,10.44,72382.3,-8.77,-36.55,-36.79,0,*55
1486242159.6,11940,10.44,72380.5,-8.75,-36.49,-36.73,0,*5E
1486242160.83,11941,10.44,72376.8,-8.75,-36.49,-36.85,0,*56
1486242162.11,11942,10.44,72378.8,-8.77,-36.61,-36.79,0,*5E
1486242163.38,11943,10.44,72382.0,-8.77,-36.73,-36.91,0,*5A
1486242164.65,11944,10.44,72382.5,-8.77,-36.55,-36.79,0,*5F
1486242165.91,11945,10.5,72386.5,-8.77,-36.43,-36.79,0,*59
1486242167.18,11946,10.44,72380.0,-8.77,-36.25,-36.55,0,*54
1486242168.47,11947,10.44,72384.0,-8.77,-36.37,-36.79,0,*58
1486242169.73,11948,10.44,72380.8,-8.77,-36.19,-36.37,0,*51
1486242171.01,11949,10.44,72382.5,-8.77,-36.25,-36.55,0,*5B
1486242172.24,11950,10.44,72382.5,-8.75,-36.19,-36.37,0,*5A
1486242173.45,11951,10.5,72382.8,-8.75,-36.19,-36.55,0,*5F
1486242174.69,11952,10.44,72382.5,-8.75,-36.13,-36.31,0,*54
1486242175.9,11953,10.44,72380.0,-8.75,-36.19,-36.67,0,*5C
1486242177.11,11954,10.44,72378.8,-8.75,-36.31,-36.67,0,*51
1486242178.38,11955,10.44,72382.8,-8.77,-36.25,-36.43,0,*51
1486242179.6,11956,10.44,72382.0,-8.75,-36.31,-36.67,0,*53
1486242180.81,11957,10.44,72380.3,-8.75,-36.31,-36.67,0,*52
1486242182.03,11958,10.44,72382.0,-8.75,-36.19,-36.55,0,*56
1486242183.27,11959,10.44,72380.8,-8.77,-36.43,-36.73,0,*5E
1486242184.49,11960,10.44,72380.3,-8.75,-36.67,-36.73,0,*50
1486242185.75,11961,10.44,72380.5,-8.77,-36.55,-36.79,0,*58
1486242187.02,11962,10.44,72380.0,-8.77,-36.55,-36.79,0,*5B
1486242188.26,11963,10.44,72382.8,-8.75,-36.37,-36.67,0,*53
1486242189.55,11964,10.44,72380.3,-8.77,-36.25,-36.61,0,*53
1486242190.82,11965,10.44,72382.8,-8.77,-36.37,-36.43,0,*51
1486242192.06,11966,10.44,72382.3,-8.77,-36.43,-36.73,0,*52
1486242193.27,11967,10.44,72378.3,-8.75,-36.55,-36.73,0,*56
1486242194.56,11968,10.44,72378.8,-8.77,-36.61,-36.91,0,*50
1486242195.85,11969,10.5,72382.8,-8.77,-36.61,-36.91,0,*51
1486242197.09,11970,10.44,72380.8,-8.81,-36.67,-36.97,0,*50
1486242198.32,11971,10.44,72376.8,-8.81,-36.67,-36.85,0,*52
1486242199.56,11972,10.44,72378.8,-8.81,-36.43,-36.67,0,*5B
1486242200.84,11973,10.44,72380.5,-8.81,-36.49,-36.79,0,*5F
1486242202.07,11974,10.44,72380.5,-8.83,-36.61,-36.85,0,*53
1486242203.33,11975,10.44,72378.0,-8.81,-36.79,-36.97,0,*5A
1486242204.58,11976,10.44,72380.8,-8.81,-36.61,-36.85,0,*53
1486242205.82,11977,10.44,72380.0,-8.81,-36.43,-36.67,0,*5E
1486242207.04,11978,10.44,72380.5,-8.83,-36.31,-36.67,0,*56
1486242208.27,11979,10.44,72382.8,-8.83,-36.43,-36.79,0,*5D
1486242209.51,11980,10.44,72380.3,-8.81,-36.31,-36.67,0,*53
1486242210.75,11981,10.44,72378.3,-8.81,-36.31,-36.67,0,*52
1486242211.99,11982,10.44,72380.5,-8.83,-36.31,-36.61,0,*55
1486242213.23,11983,10.44,72376.0,-8.83,-36.43,-36.61,0,*51
1486242214.46,11984,10.44,72380.0,-8.83,-36.31,-36.61,0,*53
1486242215.7,11985,10.44,72380.5,-8.83,-36.31,-36.61,0,*52
1486242216.93,11986,10.44,72380.8,-8.83,-36.31,-36.61,0,*51
1486242218.17,11987,10.44,72376.3,-8.83,-36.43,-36.61,0,*55
1486242219.41,11988,10.44,72382.0,-8.83,-36.31,-36.61,0,*5F
1486242220.61,11989,10.44,72382.5,-8.83,-36.43,-36.85,0,*51
1486242221.85,11990,10.44,72380.8,-8.83,-36.61,-36.85,0,*59
1486242223.08,11991,10.44,72380.5,-8.83,-36.43,-36.79,0,*5B
1486242224.3,11992,10.44,72380.3,-8.83,-36.31,-36.67,0,*52
1486242225.53,11993,10.44,72382.3,-8.83,-36.31,-36.49,0,*5F
1486242226.74,11994,10.44,72378.0,-8.83,-36.01,-36.31,0,*54
1486242227.98,11995,10.44,72378.8,-8.83,-36.31,-36.61,0,*53
1486242229.2,11996,10.44,72380.5,-8.83,-36.43,-36.67,0,*53
1486242230.41,11997,10.44,72378.0,-8.83,-36.43,-36.67,0,*52
1486242231.65,11998,10.44,72378.3,-8.83,-36.31,-36.61,0,*5E
1486242232.91,11999,10.44,72378.5,-8.81,-36.31,-36.61,0,*5D
1486242234.16,12000,10.44,72378.5,-8.81,-36.19,-36.49,0,*57
1486242235.37,12001,10.44,72378.3,-8.83,-36.19,-36.31,0,*5B
1486242236.62,12002,10.44,72382.8,-8.83,-36.25,-36.43,0,*52
1486242237.83,12003,10.44,72378.8,-8.83,-36.19,-36.43,0,*5C
1486242239.06,12004,10.44,72378.8,-8.83,-36.25,-36.43,0,*54
1486242240.33,12005,10.44,72380.0,-8.83,-36.25,-36.49,0,*5F
1486242241.59,12006,10.44,72380.5,-8.83,-36.25,-36.49,0,*5C
1486242242.85,12007,10.44,72376.5,-8.83,-36.25,-36.49,0,*5D
1486242244.09,12008,10.44,72380.5,-8.83,-36.31,-36.61,0,*5D
1486242245.33,12009,10.44,72376.8,-8.83,-36.25,-36.43,0,*59
1486242246.57,12010,10.44,72380.3,-8.83,-36.07,-36.25,0,*51
1486242247.81,12011,10.44,72380.5,-8.83,-36.19,-36.25,0,*5F
1486242249.04,12012,10.44,72382.0,-8.83,-36.43,-36.61,0,*53
1486242250.28,12013,10.44,72380.8,-8.83,-36.31,-36.61,0,*57
1486242251.51,12014,10.44,72378.8,-8.83,-36.43,-36.79,0,*5C
1486242252.74,12015,10.44,72378.5,-8.83,-36.61,-36.85,0,*5E
1486242253.98,12016,10.44,72378.5,-8.83,-36.61,-36.97,0,*5E
1486242255.21,12017,10.44,72378.8,-8.83,-36.49,-36.85,0,*56
1486242256.44,12018,10.44,72378.0,-8.83,-36.43,-36.79,0,*50
1486242257.68,12019,10.44,72378.5,-8.87,-36.67,-36.85,0,*50
1486242258.93,12020,10.44,72378.5,-8.83,-36.49,-36.79,0,*51
1486242260.17,12021,10.44,72382.3,-8.87,-36.55,-36.85,0,*5A
1486242261.41,12022,10.44,72376.5,-8.85,-36.31,-36.61,0,*53
1486242262.66,12023,10.44,72376.0,-8.85,-36.61,-36.79,0,*5E
1486242263.9,12024,10.44,72376.5,-8.85,-36.43,-36.61,0,*50
1486242265.16,12025,10.44,72376.8,-8.85,-36.37,-36.61,0,*52
1486242266.43,12026,10.44,72378.5,-8.87,-36.37,-36.55,0,*54
1486242267.67,12027,10.44,72378.0,-8.85,-36.25,-36.31,0,*56
1486242268.91,12028,10.44,72382.0,-8.85,-36.07,-36.25,0,*5C
1486242270.17,12029,10.44,72378.0,-8.87,-36.13,-36.31,0,*5F
1486242271.44,12030,10.44,72378.8,-8.87,-36.07,-36.25,0,*57
1486242272.65,12031,10.44,72378.3,-8.85,-36.07,-36.19,0,*5B
1486242273.85,12032,10.44,72378.8,-8.85,-36.01,-36.19,0,*5E
1486242275.09,12033,10.44,72380.3,-8.85,-36.25,-36.31,0,*53
1486242276.36,12034,10.44,72380.0,-8.87,-36.25,-36.43,0,*53
1486242277.62,12035,10.44,72378.8,-8.87,-36.07,-36.13,0,*57
1486242278.83,12036,10.44,72376.5,-8.85,-36.01,-36.19,0,*5A
1486242280.09,12037,10.44,72380.5,-8.87,-35.95,-36.07,0,*58
1486242281.31,12038,10.44,72382.0,-8.85,-35.89,-36.01,0,*5E
1486242282.52,12039,10.44,72380.0,-8.85,-36.01,-36.07,0,*5A
1486242283.78,12040,10.44,72376.5,-8.85,-35.65,-35.83,0,*5A
1486242285.02,12041,10.44,72378.5,-8.85,-35.65,-35.89,0,*51
1486242286.26,12042,10.44,72376.8,-8.83,-35.71,-35.83,0,*5B
1486242287.5,12043,10.44,72376.8,-8.83,-35.71,-35.83,0,*5A
1486242288.74,12044,10.44,72380.0,-8.83,-35.83,-36.01,0,*59
1486242289.98,12045,10.44,72380.3,-8.83,-36.07,-36.25,0,*51
1486242291.22,12046,10.44,72378.0,-8.83,-36.07,-36.25,0,*52
1486242292.46,12047,10.44,72376.8,-8.83,-36.01,-36.25,0,*55
1486242293.7,12048,10.44,72376.0,-8.83,-36.07,-36.25,0,*5C
1486242294.92,12049,10.44,72376.5,-8.83,-36.07,-36.31,0,*58
1486242296.16,12050,10.44,72378.0,-8.83,-36.25,-36.43,0,*55
1486242297.37,12051,10.44,72382.5,-8.83,-36.19,-36.43,0,*5B
1486242298.57,12052,10.44,72380.5,-8.83,-36.01,-36.19,0,*5E
1486242299.81,12053,10.44,72382.0,-8.83,-35.83,-36.07,0,*59
1486242301.05,12054,10.44,72376.0,-8.81,-35.89,-36.01,0,*50
1486242302.29,12055,10.44,72382.8,-8.83,-36.07,-36.25,0,*50
1486242303.54,12056,10.44,72376.0,-8.83,-35.83,-36.01,0,*5A
1486242304.78,12057,10.44,72376.5,-8.83,-35.71,-35.83,0,*5F
1486242306.01,12058,10.44,72376.5,-8.83,-35.71,-35.83,0,*50
1486242307.25,12059,10.44,72376.0,-8.83,-35.65,-35.89,0,*5E
1486242308.54,12060,10.44,72376.5,-8.81,-35.65,-35.83,0,*5C
1486242309.78,12061,10.44,72378.3,-8.81,-35.71,-36.01,0,*51
1486242311.05,12062,10.44,72376.0,-8.81,-35.83,-36.01,0,*5F
1486242312.29,12063,10.44,72378.5,-8.81,-35.89,-36.01,0,*54
1486242313.52,12064,10.44,72378.5,-8.81,-36.07,-36.19,0,*5F
1486242314.75,12065,10.44,72374.0,-8.81,-36.19,-36.19,0,*51
1486242315.98,12066,10.44,72376.3,-8.81,-36.01,-36.19,0,*5B
1486242317.25,12067,10.44,72376.8,-8.81,-35.83,-36.01,0,*5A
1486242318.46,12068,10.44,72376.5,-8.83,-35.89,-36.07,0,*5B
1486242319.73,12069,10.44,72376.0,-8.81,-36.07,-36.25,0,*5D
1486242320.96,12070,10.44,72378.0,-8.81,-36.07,-36.19,0,*5A
1486242322.19,12071,10.44,72376.3,-8.81,-36.01,-36.19,0,*5D
1486242323.46,12072,10.44,72374.3,-8.81,-36.07,-36.25,0,*57
1486242324.69,12073,10.44,72372.0,-8.81,-36.01,-36.19,0,*5F
1486242325.93,12074,10.44,72374.5,-8.81,-36.19,-36.31,0,*5B
1486242327.19,12075,10.44,72376.5,-8.81,-36.25,-36.43,0,*50
1486242328.42,12076,10.44,72374.5,-8.81,-36.01,-36.19,0,*5A
1486242329.66,12077,10.44,72376.3,-8.81,-36.19,-36.31,0,*58
1486242330.91,12078,10.44,72374.8,-8.81,-35.83,-36.07,0,*52
1486242332.18,12079,10.44,72378.0,-8.81,-35.83,-36.01,0,*55
1486242333.46,12080,10.44,72378.0,-8.77,-35.77,-35.95,0,*5F
1486242334.73,12081,10.44,72376.5,-8.77,-35.77,-35.83,0,*59
1486242336.01,12082,10.44,72376.8,-8.77,-35.77,-35.83,0,*5A
1486242337.28,12083,10.44,72376.3,-8.77,-35.83,-36.01,0,*59
1486242338.57,12084,10.44,72378.0,-8.77,-35.83,-36.13,0,*5D
1486242339.84,12085,10.44,72374.5,-8.77,-36.01,-36.25,0,*50
1486242341.11,12086,10.44,72372.0,-8.77,-36.01,-36.13,0,*56
1486242342.34,12087,10.44,72376.8,-8.75,-35.83,-36.07,0,*59
1486242343.61,12088,10.44,72372.0,-8.77,-35.65,-35.77,0,*58
1486242344.82,12089,10.44,72372.8,-8.75,-35.59,-35.77,0,*54
1486242346.04,12090,10.44,72372.3,-8.75,-35.71,-35.89,0,*57
1486242347.26,12091,10.44,72372.5,-8.75,-35.71,-35.89,0,*56
1486242348.49,12092,10.44,72372.5,-8.75,-35.53,-35.71,0,*52
1486242349.71,12093,10.44,72372.8,-8.75,-35.53,-35.71,0,*53
1486242350.94,12094,10.44,72374.8,-8.75,-35.53,-35.71,0,*54
1486242352.15,12095,10.44,72376.0,-8.75,-35.71,-35.77,0,*53
1486242353.41,12096,10.44,72376.0,-8.73,-35.35,-35.71,0,*50
1486242354.65,12097,10.44,72376.8,-8.73,-35.59,-35.77,0,*5D
1486242355.92,12098,10.44,72372.8,-8.73,-35.71,-35.95,0,*54
1486242357.17,12099,10.44,72378.5,-8.73,-35.53,-35.71,0,*5F
1486242358.38,12100,10.44,72376.0,-8.71,-35.17,-35.47,0,*59
1486242359.62,12101,10.44,72380.3,-8.71,-35.47,-35.53,0,*58
1486242360.85,12102,10.44,72378.3,-8.71,-35.65,-35.71,0,*5B
1486242362.1,12103,10.44,72376.3,-8.71,-35.53,-35.65,0,*5A
1486242363.34,12104,10.44,72378.8,-8.71,-35.71,-35.83,0,*55
1486242364.62,12105,10.44,72376.5,-8.69,-35.65,-35.83,0,*58
1486242365.89,12106,10.44,72374.3,-8.69,-35.71,-35.83,0,*5E
1486242367.13,12107,10.44,72378.3,-8.67,-35.65,-35.77,0,*5F
1486242368.38,12108,10.44,72374.0,-8.69,-35.65,-35.71,0,*58
1486242369.67,12109,10.44,72376.0,-8.69,-35.65,-35.83,0,*54
1486242370.93,12110,10.44,72376.8,-8.67,-35.65,-35.83,0,*52
1486242372.19,12111,10.44,72374.8,-8.67,-35.83,-35.95,0,*5C
1486242373.47,12112,10.44,72376.5,-8.69,-35.83,-36.01,0,*5F
1486242374.71,12113,10.44,72374.3,-8.69,-35.71,-35.89,0,*50
1486242375.96,12114,10.44,72374.3,-8.67,-35.77,-35.95,0,*52
1486242377.19,12115,10.44,72374.3,-8.67,-35.95,-36.07,0,*57
1486242378.43,12116,10.44,72378.5,-8.69,-35.89,-36.07,0,*57
1486242379.67,12117,10.44,72374.8,-8.69,-36.01,-36.07,0,*55
1486242380.94,12118,10.44,72372.3,-8.65,-35.95,-36.01,0,*5E
1486242382.17,12119,10.44,72374.0,-8.67,-35.95,-36.07,0,*5B
1486242383.44,12120,10.44,72376.0,-8.65,-35.59,-35.95,0,*5B
1486242384.7,12121,10.44,72374.8,-8.65,-35.77,-35.83,0,*51
1486242385.94,12122,10.44,72376.3,-8.67,-35.95,-36.07,0,*53
1486242387.21,12123,10.44,72376.0,-8.65,-35.83,-36.01,0,*51
1486242388.5,12124,10.44,72378.0,-8.65,-35.83,-35.95,0,*58
1486242389.73,12125,10.44,72374.3,-8.65,-36.01,-36.19,0,*57
1486242390.99,12126,10.44,72376.5,-8.65,-36.07,-36.25,0,*5D
1486242392.23,12127,10.44,72378.5,-8.65,-36.01,-36.19,0,*55
1486242393.46,12128,10.44,72376.0,-8.65,-36.01,-36.19,0,*5A
1486242394.72,12129,10.44,72378.8,-8.65,-36.07,-36.25,0,*52
1486242395.98,12130,10.44,72374.8,-8.65,-36.07,-36.37,0,*59
1486242397.23,12131,10.44,72378.5,-8.65,-36.19,-36.37,0,*57
1486242398.49,12132,10.44,72378.5,-8.65,-35.95,-36.07,0,*50
1486242399.73,12133,10.44,72378.3,-8.65,-36.01,-36.07,0,*5F
1486242400.99,12134,10.44,72372.0,-8.65,-36.01,-36.25,0,*58
1486242402.25,12135,10.44,72374.0,-8.65,-36.01,-36.25,0,*59
1486242403.52,12136,10.44,72378.5,-8.65,-35.95,-36.01,0,*52
1486242404.78,12137,10.44,72378.8,-8.65,-36.01,-36.25,0,*5B
1486242406.05,12138,10.44,72376.0,-8.65,-36.01,-36.25,0,*54
1486242407.3,12139,10.44,72378.5,-8.65,-36.19,-36.37,0,*5F
1486242408.56,12140,10.44,72376.3,-8.65,-36.07,-36.37,0,*5E
1486242409.79,12141,10.44,72378.3,-8.65,-36.07,-36.19,0,*53
1486242411.06,12142,10.44,72376.0,-8.65,-36.07,-36.25,0,*5F
1486242412.29,12143,10.44,72376.5,-8.65,-36.07,-36.19,0,*51
1486242413.52,12144,10.44,72378.0,-8.65,-36.01,-36.07,0,*5F
1486242414.76,12145,10.44,72376.3,-8.67,-36.07,-36.25,0,*5A
1486242415.99,12146,10.44,72378.3,-8.67,-36.19,-36.37,0,*55
1486242417.22,12147,10.44,72378.0,-8.65,-36.19,-36.43,0,*55
1486242418.46,12148,10.44,72378.0,-8.67,-36.07,-36.25,0,*57
1486242419.68,12149,10.44,72374.8,-8.67,-36.07,-36.43,0,*56
1486242420.91,12150,10.44,72376.8,-8.67,-35.95,-36.07,0,*56
1486242422.12,12151,10.44,72376.8,-8.67,-36.01,-36.19,0,*56
1486242423.36,12152,10.44,72376.8,-8.67,-36.01,-36.25,0,*5A
1486242424.6,12153,10.44,72380.3,-8.67,-36.07,-36.25,0,*5D
1486242425.81,12154,10.44,72378.8,-8.67,-36.01,-36.19,0,*53
1486242427.04,12155,10.44,72378.8,-8.67,-36.07,-36.37,0,*58
1486242428.33,12156,10.44,72376.3,-8.69,-36.13,-36.25,0,*53
1486242429.56,12157,10.44,72376.8,-8.67,-36.19,-36.25,0,*56
1486242430.8,12158,10.44,72376.0,-8.67,-36.07,-36.37,0,*55
1486242432.01,12159,10.44,72382.3,-8.67,-36.19,-36.43,0,*58
1486242433.22,12160,10.44,72376.8,-8.67,-36.19,-36.55,0,*55
1486242434.48,12161,10.44,72380.3,-8.69,-36.43,-36.61,0,*52
1486242435.72,12162,10.44,72378.5,-8.67,-36.25,-36.43,0,*5F
1486242436.96,12163,10.44,72376.3,-8.67,-36.07,-36.37,0,*5D
1486242438.22,12164,10.44,72380.8,-8.69,-36.13,-36.43,0,*52
1486242439.45,12165,10.44,72380.0,-8.67,-36.19,-36.49,0,*5D
1486242440.66,12166,10.44,72378.3,-8.67,-36.19,-36.43,0,*54
1486242441.92,12167,10.44,72378.8,-8.69,-36.13,-36.43,0,*51
1486242443.16,12168,10.44,72378.0,-8.67,-36.01,-36.25,0,*53
1486242444.36,12169,10.38,72376.3,-8.67,-36.01,-36.07,0,*52
1486242445.57,12170,10.44,72378.8,-8.67,-36.01,-36.19,0,*55
1486242446.84,12171,10.44,72378.3,-8.69,-35.83,-36.01,0,*5A
1486242448.11,12172,10.38,72374.3,-8.69,-35.83,-36.07,0,*5F
1486242449.34,12173,10.44,72376.5,-8.67,-36.07,-36.37,0,*5C
1486242450.57,12174,10.44,72378.3,-8.67,-36.19,-36.37,0,*54
1486242451.8,12175,10.44,72376.5,-8.67,-36.07,-36.37,0,*5A
1486242453.01,12176,10.44,72378.5,-8.67,-36.19,-36.55,0,*52
1486242454.25,12177,10.44,72378.8,-8.67,-36.07,-36.37,0,*58
1486242455.51,12178,10.44,72376.8,-8.69,-36.07,-36.25,0,*5A
1486242456.75,12179,10.44,72376.8,-8.69,-36.01,-36.07,0,*5D
1486242457.99,12180,10.44,72376.3,-8.67,-35.83,-36.01,0,*5A
1486242459.23,12181,10.44,72376.5,-8.67,-35.95,-36.19,0,*55
1486242460.44,12182,10.44,72376.8,-8.67,-36.01,-36.07,0,*57
1486242461.7,12183,10.44,72378.5,-8.69,-36.01,-36.13,0,*5D
1486242462.93,12184,10.44,72376.8,-8.67,-35.95,-36.19,0,*50
1486242464.17,12185,10.44,72378.5,-8.67,-35.95,-36.19,0,*51
1486242465.41,12186,10.44,72378.0,-8.67,-35.95,-36.07,0,*5D
1486242466.67,12187,10.44,72376.0,-8.65,-35.95,-36.07,0,*5E
1486242467.93,12188,10.44,72378.3,-8.65,-36.01,-36.25,0,*5F
1486242469.19,12189,10.44,72376.5,-8.65,-36.01,-36.37,0,*5D
1486242470.42,12190,10.44,72376.5,-8.67,-35.95,-36.19,0,*55
1486242471.65,12191,10.44,72376.3,-8.67,-35.83,-36.07,0,*5C
1486242472.9,12192,10.38,72374.5,-8.67,-35.83,-36.01,0,*59
1486242474.12,12193,10.44,72376.0,-8.67,-35.77,-36.01,0,*53
1486242475.36,12194,10.44,72378.8,-8.67,-35.77,-35.95,0,*5A
1486242476.61,12195,10.44,72378.8,-8.67,-35.83,-36.01,0,*5E
1486242477.83,12196,10.44,72378.8,-8.67,-35.77,-36.01,0,*56
1486242479.07,12197,10.44,72376.5,-8.67,-35.83,-36.01,0,*5C
1486242480.31,12198,10.44,72376.5,-8.65,-35.77,-36.07,0,*5C
1486242481.54,12199,10.38,72374.3,-8.65,-35.77,-36.07,0,*5D
1486242482.8,12200,10.44,72378.8,-8.65,-35.59,-35.83,0,*5D
1486242484.04,12201,10.44,72378.3,-8.63,-35.71,-35.95,0,*57
1486242485.3,12202,10.38,72374.8,-8.65,-35.83,-36.19,0,*58
1486242486.56,12203,10.44,72378.5,-8.65,-36.01,-36.25,0,*5F
1486242487.85,12204,10.38,72376.0,-8.65,-35.95,-36.25,0,*56
1486242489.11,12205,10.44,72376.8,-8.63,-35.95,-36.13,0,*54
1486242490.35,12206,10.38,72372.5,-8.63,-35.89,-36.13,0,*5A
1486242491.58,12207,10.44,72378.3,-8.63,-35.77,-36.13,0,*5A
1486242492.82,12208,10.38,72376.8,-8.63,-35.95,-36.31,0,*59
1486242494.06,12209,10.38,72376.3,-8.65,-36.07,-36.55,0,*54
1486242495.32,12210,10.44,72376.5,-8.61,-36.01,-36.37,0,*5A
1486242496.56,12211,10.38,72378.8,-8.65,-36.19,-36.55,0,*52